This is the latest recevied weather packets stored in our database for station/object CA2RRL-10. If no packets are shown the sender has not sent any weather packets the latest 10 day(s).
| Time | Temp. | Humidity | Pressure | Rain* | Wind** | Luminosity | Snow |
|---|---|---|---|---|---|---|---|
| 1777300356 | 14.44° C | 20% | 1032.4 hPa | - | - | - | - |
| 1777299456 | 13.33° C | 20% | 1032.5 hPa | - | - | - | - |
| 1777298556 | 12.22° C | 21% | 1032.8 hPa | - | - | - | - |
| 1777297656 | 11.11° C | 23% | 1032.8 hPa | - | - | - | - |
| 1777296756 | 10° C | 24% | 1032.9 hPa | - | - | - | - |
| 1777295856 | 9.44° C | 26% | 1032.7 hPa | - | - | - | - |
| 1777294956 | 7.78° C | 30% | 1032.6 hPa | - | - | - | - |
| 1777294056 | 7.22° C | 32% | 1032.7 hPa | - | - | - | - |
| 1777293155 | 6.67° C | 34% | 1032.5 hPa | - | - | - | - |
| 1777292255 | 5.56° C | 35% | 1032.6 hPa | - | - | - | - |
| 1777291355 | 5° C | 36% | 1032.4 hPa | - | - | - | - |
| 1777290455 | 5° C | 35% | 1032.1 hPa | - | - | - | - |
| 1777289555 | 5° C | 35% | 1032.1 hPa | - | - | - | - |
| 1777288655 | 5° C | 35% | 1032 hPa | - | - | - | - |
| 1777287755 | 5° C | 35% | 1031.9 hPa | - | - | - | - |
| 1777286855 | 5° C | 35% | 1031.9 hPa | - | - | - | - |
| 1777285955 | 5° C | 35% | 1032 hPa | - | - | - | - |
| 1777285055 | 5.56° C | 34% | 1032 hPa | - | - | - | - |
| 1777284155 | 5.56° C | 34% | 1032 hPa | - | - | - | - |
| 1777283255 | 5.56° C | 35% | 1031.8 hPa | - | - | - | - |
| 1777282354 | 5.56° C | 34% | 1031.9 hPa | - | - | - | - |
| 1777281455 | 5.56° C | 34% | 1031.9 hPa | - | - | - | - |
| 1777280554 | 6.11° C | 34% | 1031.8 hPa | - | - | - | - |
| 1777279654 | 6.11° C | 33% | 1031.8 hPa | - | - | - | - |
| 1777278754 | 6.67° C | 33% | 1031.8 hPa | - | - | - | - |
* Rain since midnight (hover to see other rain measurements)
** Current wind speed in m/s (hover to see current wind gust speed)